When you browse on this site, cookies collect data to enhance your experience and personalize the content and advertising you see.
Visit our Privacy Policy to learn more. By continuing to use the site, you agree to this use of cookies and data.
  • In Hungary
  • List of Countries
  • For 7 days
  • Water Temperature
  • Satellite Maps
  • Weather Map
  • News
  • Weather Widgets
  • user-avatar
    Login

    Hourly Weather Civitavecchia

    Today, 18 January, Friday

    Time Temperature Precipitation Wind Pressure Humidity
    00:00 +8°C° 0.4 mm 6 mps 754 mmHg 94%
    01:00 +8°C° 0.4 mm 6 mps 754 mmHg 93%
    02:00 +8°C° 0.4 mm 6 mps 753 mmHg 93%
    03:00 +8°C° 0.4 mm 6 mps 753 mmHg 93%
    04:00 +8°C° 0.4 mm 6 mps 753 mmHg 93%
    05:00 +8°C° 0.6 mm 6 mps 753 mmHg 93%
    06:00 +8°C° 0.6 mm 6 mps 753 mmHg 93%
    07:00 +8°C° 0.6 mm 6 mps 753 mmHg 93%
    08:00 +9°C° 0.4 mm 7 mps 753 mmHg 91%
    09:00 +9°C° 0.4 mm 7 mps 753 mmHg 89%
    10:00 +10°C° 0.4 mm 7 mps 753 mmHg 87%
    11:00 +10°C° 0.1 mm 7 mps 753 mmHg 82%
    12:00 +11°C° 0.1 mm 7 mps 753 mmHg 77%
    13:00 +11°C° 0.1 mm 7 mps 753 mmHg 71%
    14:00 +11°C° 0 mm 7 mps 753 mmHg 70%
    15:00 +10°C° 0 mm 7 mps 753 mmHg 69%
    16:00 +10°C° 0 mm 6 mps 753 mmHg 68%
    17:00 +9°C° 0 mm 6 mps 753 mmHg 71%
    18:00 +8°C° 0 mm 6 mps 753 mmHg 74%
    19:00 +5°C° 0 mm 6 mps 753 mmHg 77%
    20:00 +5°C° 0 mm 6 mps 754 mmHg 78%
    21:00 +5°C° 0 mm 6 mps 754 mmHg 80%
    22:00 +6°C° 0 mm 5 mps 754 mmHg 81%
    23:00 +5°C° 0 mm 5 mps 754 mmHg 82%

    Tomorrow, 19 January, Saturday

    Time Temperature Precipitation Wind Pressure Humidity
    00:00 +5°C° 0 mm 5 mps 754 mmHg 83%
    01:00 +5°C° 0 mm 5 mps 754 mmHg 83%
    02:00 +5°C° 0.1 mm 5 mps 754 mmHg 84%
    03:00 +5°C° 0.1 mm 5 mps 754 mmHg 85%
    04:00 +5°C° 0.1 mm 5 mps 753 mmHg 86%
    05:00 +5°C° 0 mm 4 mps 753 mmHg 88%
    06:00 +5°C° 0 mm 4 mps 753 mmHg 89%
    07:00 +5°C° 0 mm 3 mps 753 mmHg 91%
    08:00 +7°C° 0 mm 3 mps 754 mmHg 88%
    09:00 +8°C° 0 mm 3 mps 754 mmHg 85%
    10:00 +9°C° 0 mm 2 mps 754 mmHg 82%
    11:00 +10°C° 0 mm 2 mps 754 mmHg 80%
    12:00 +10°C° 0 mm 2 mps 753 mmHg 78%
    13:00 +12°C° 0 mm 2 mps 753 mmHg 76%
    14:00 +10°C° 0 mm 2 mps 753 mmHg 77%
    15:00 +10°C° 0 mm 2 mps 753 mmHg 78%
    16:00 +10°C° 0 mm 2 mps 753 mmHg 79%
    17:00 +9°C° 0 mm 2 mps 753 mmHg 82%
    18:00 +8°C° 0 mm 2 mps 753 mmHg 85%
    19:00 +7°C° 0 mm 2 mps 754 mmHg 89%
    20:00 +7°C° 0 mm 1 mps 754 mmHg 90%
    21:00 +7°C° 0 mm 1 mps 754 mmHg 90%
    22:00 +5°C° 0 mm 0 mps 754 mmHg 91%
    23:00 +6°C° 0 mm 1 mps 754 mmHg 92%

    Day after tomorrow, 20 January, Sunday

    Time Temperature Precipitation Wind Pressure Humidity
    00:00 +5°C° 0 mm 2 mps 754 mmHg 93%
    01:00 +5°C° 0 mm 2 mps 754 mmHg 95%
    02:00 +5°C° 0 mm 2 mps 754 mmHg 95%
    03:00 +4°C° 0 mm 3 mps 754 mmHg 96%
    04:00 +3°C° 0 mm 3 mps 754 mmHg 97%
    05:00 +3°C° 0 mm 3 mps 754 mmHg 97%
    06:00 +4°C° 0 mm 3 mps 754 mmHg 96%
    07:00 +4°C° 0 mm 3 mps 754 mmHg 96%
    08:00 +5°C° 0 mm 4 mps 754 mmHg 92%
    09:00 +6°C° 0 mm 4 mps 754 mmHg 88%
    10:00 +7°C° 0 mm 4 mps 754 mmHg 84%
    11:00 +8°C° 0.1 mm 4 mps 754 mmHg 82%
    12:00 +10°C° 0.1 mm 4 mps 754 mmHg 79%
    13:00 +10°C° 0.1 mm 5 mps 754 mmHg 76%
    14:00 +10°C° 0.3 mm 5 mps 753 mmHg 78%
    15:00 +9°C° 0.3 mm 5 mps 753 mmHg 80%
    16:00 +9°C° 0.3 mm 5 mps 753 mmHg 82%
    17:00 +8°C° 0.2 mm 5 mps 753 mmHg 85%
    18:00 +8°C° 0.2 mm 5 mps 753 mmHg 87%
    19:00 +7°C° 0.2 mm 6 mps 754 mmHg 89%
    20:00 +7°C° 0.2 mm 6 mps 754 mmHg 90%
    21:00 +7°C° 0.2 mm 6 mps 754 mmHg 90%
    22:00 +7°C° 0.2 mm 6 mps 754 mmHg 90%
    23:00 +6°C° 0.4 mm 5 mps 754 mmHg 90%

    21 January, Monday

    Time Temperature Precipitation Wind Pressure Humidity
    00:00 +6°C° 0.4 mm 5 mps 754 mmHg 91%
    01:00 +6°C° 0.4 mm 5 mps 754 mmHg 91%
    02:00 +6°C° 1.1 mm 5 mps 753 mmHg 92%
    03:00 +6°C° 1.1 mm 5 mps 753 mmHg 93%
    04:00 +6°C° 1.1 mm 5 mps 753 mmHg 94%
    05:00 +6°C° 1.4 mm 5 mps 752 mmHg 93%
    06:00 +5°C° 1.4 mm 6 mps 752 mmHg 93%
    07:00 +5°C° 1.4 mm 6 mps 752 mmHg 93%
    08:00 +5°C° 2.2 mm 7 mps 752 mmHg 92%
    09:00 +5°C° 2.2 mm 8 mps 752 mmHg 91%
    10:00 +5°C° 2.2 mm 8 mps 752 mmHg 90%
    11:00 +6°C° 1.2 mm 9 mps 752 mmHg 88%
    12:00 +7°C° 1.2 mm 9 mps 751 mmHg 86%
    13:00 +8°C° 1.2 mm 9 mps 751 mmHg 84%
    14:00 +7°C° 2.8 mm 9 mps 751 mmHg 86%
    15:00 +7°C° 2.8 mm 9 mps 751 mmHg 88%
    16:00 +7°C° 2.8 mm 9 mps 750 mmHg 89%
    17:00 +6°C° 3.2 mm 9 mps 750 mmHg 90%
    18:00 +6°C° 3.2 mm 8 mps 750 mmHg 91%
    19:00 +6°C° 3.2 mm 8 mps 750 mmHg 91%
    20:00 +6°C° 1 mm 8 mps 750 mmHg 91%
    21:00 +5°C° 1 mm 7 mps 750 mmHg 92%
    22:00 +5°C° 1 mm 7 mps 750 mmHg 92%
    23:00 +5°C° 1.4 mm 7 mps 749 mmHg 93%

    22 January, Tuesday

    Time Temperature Precipitation Wind Pressure Humidity
    00:00 +5°C° 1.4 mm 7 mps 749 mmHg 94%
    01:00 +5°C° 1.4 mm 7 mps 749 mmHg 94%
    02:00 +5°C° 0.1 mm 6 mps 748 mmHg 94%
    03:00 +5°C° 0.1 mm 6 mps 748 mmHg 93%
    04:00 +6°C° 0.1 mm 5 mps 748 mmHg 92%
    05:00 +6°C° 0.3 mm 5 mps 747 mmHg 93%
    06:00 +6°C° 0.3 mm 4 mps 747 mmHg 93%
    07:00 +7°C° 0.3 mm 3 mps 747 mmHg 93%
    08:00 +7°C° 0.5 mm 3 mps 747 mmHg 94%
    09:00 +7°C° 0.5 mm 3 mps 747 mmHg 94%
    10:00 +7°C° 0.5 mm 3 mps 747 mmHg 94%
    11:00 +6°C° 0.1 mm 4 mps 747 mmHg 93%
    12:00 +6°C° 0.1 mm 5 mps 746 mmHg 92%
    13:00 +5°C° 0.1 mm 6 mps 746 mmHg 91%
    14:00 +5°C° 0 mm 6 mps 746 mmHg 90%
    15:00 +5°C° 0 mm 6 mps 745 mmHg 88%
    16:00 +5°C° 0 mm 6 mps 745 mmHg 87%
    17:00 +5°C° 0.1 mm 5 mps 745 mmHg 88%
    18:00 +5°C° 0.1 mm 4 mps 745 mmHg 89%
    19:00 +5°C° 0.1 mm 3 mps 744 mmHg 89%
    20:00 +4°C° 0 mm 3 mps 744 mmHg 90%
    21:00 +4°C° 0 mm 3 mps 744 mmHg 91%
    22:00 +4°C° 0 mm 3 mps 744 mmHg 92%
    23:00 +4°C° 0 mm 3 mps 743 mmHg 91%

    23 January, Wednesday

    Time Temperature Precipitation Wind Pressure Humidity
    00:00 +5°C° 0 mm 3 mps 743 mmHg 90%
    01:00 +5°C° 0 mm 4 mps 742 mmHg 89%
    02:00 +5°C° 0.7 mm 5 mps 741 mmHg 90%
    03:00 +4°C° 0.7 mm 6 mps 740 mmHg 90%
    04:00 +5°C° 0.7 mm 7 mps 739 mmHg 91%
    05:00 +5°C° 1 mm 7 mps 738 mmHg 91%
    06:00 +5°C° 1 mm 7 mps 738 mmHg 90%
    07:00 +5°C° 1 mm 8 mps 737 mmHg 90%
    08:00 +5°C° 0.9 mm 8 mps 736 mmHg 86%
    09:00 +4°C° 0.9 mm 8 mps 736 mmHg 82%
    10:00 +4°C° 0.9 mm 8 mps 736 mmHg 78%
    11:00 +5°C° 0.1 mm 8 mps 736 mmHg 72%
    12:00 +5°C° 0.1 mm 9 mps 736 mmHg 66%
    13:00 +6°C° 0.1 mm 9 mps 736 mmHg 60%
    14:00 +5°C° 0.4 mm 9 mps 735 mmHg 66%
    15:00 +5°C° 0.4 mm 8 mps 734 mmHg 73%
    16:00 +4°C° 0.4 mm 8 mps 734 mmHg 79%
    17:00 +4°C° 0.4 mm 8 mps 734 mmHg 79%
    18:00 +4°C° 0.4 mm 7 mps 733 mmHg 80%
    19:00 +3°C° 0.4 mm 7 mps 733 mmHg 80%
    20:00 +3°C° 0.7 mm 6 mps 732 mmHg 82%
    21:00 +3°C° 0.7 mm 6 mps 732 mmHg 84%
    22:00 +3°C° 0.7 mm 5 mps 731 mmHg 86%
    23:00 +3°C° 1.4 mm 4 mps 730 mmHg 87%
    Show more